Regional Weather Roundup
Issued by NWS

Home | Current Version | Previous Version | Graphics & Text | Print | Product List | Glossary On
Versions: 1 2 3 4 5 6 7 8 9 10 11 12 13 14 15 16 17 18 19 20 21 22 23 24 25 26 27 28 29 30 31 32 33 34 35 36 37 38 39 40 41 42 43 44 45 46 47 48 49 50
000
ASUS44 KMEG 112100
RWRTN
TENNESSEE HOURLY STATE WEATHER ROUNDUP
NATIONAL WEATHER SERVICE MEMPHIS TN
300 PM CST MON DEC 11 2017

TNZ002-004-019-021-049-052-054-088>092-112200-
WEST TENNESSEE

CITY           SKY/WX    TMP DP  RH WIND       PRES   REMARKS
MEMPHIS INTL   MOSUNNY   64  32  30 SW16      29.96F
NWS MEMPHIS      N/A     65 N/A N/A MISG        N/A
JACKSON        SUNNY     64  28  25 SW14G22   29.91F
DYERSBURG      SUNNY     67  28  23 SW13G24   29.87F
$$

TNZ008-025-027-028-033-062-065-066-112200-
NORTH MIDDLE TENNESSEE

CITY           SKY/WX    TMP DP  RH WIND       PRES   REMARKS
NASHVILLE      MOSUNNY   60  30  32 S15       29.91F
CLARKSVILLE    SUNNY     59  27  29 S16G25    29.84F
SMYRNA         SUNNY     59  32  36 S10       29.93F
CROSSVILLE     SUNNY     53  30  41 S7        29.92F
$$

TNZ061-075-076-078-094-096-097-112200-
SOUTH MIDDLE TENNESSEE

CITY           SKY/WX    TMP DP  RH WIND       PRES   REMARKS
$$

TNZ017-018-042-046-047-112200-
NORTHEAST TENNESSEE

CITY           SKY/WX    TMP DP  RH WIND       PRES   REMARKS
TRI CITIES     SUNNY     52  29  41 SW14      29.95F
$$

TNZ012-013-036-069-073-074-112200-
CENTRAL EAST TENNESSEE

CITY           SKY/WX    TMP DP  RH WIND       PRES   REMARKS
KNOXVILLE      SUNNY     55  33  43 SW16      29.95F
OAK RIDGE      SUNNY     55  31  39 VRB5      29.96F
$$

TNZ083-085-099-112200-
SOUTHEAST TENNESSEE

CITY           SKY/WX    TMP DP  RH WIND       PRES   REMARKS
CHATTANOOGA    SUNNY     59  31  34 S8        29.99F
$$

SKY/WX REPORTED AS FAIR MEANS FEW OR NO CLOUDS BELOW
12 THOUSAND FEET.




USA.gov is the U.S. government's official web portal to all federal, state and local government web resources and services.